Location: Brede
(50.9167°N, 0.6000°E)
Time: 02:14:01
(UTC+00:00)

Iridium 51 - Pass Details

Date: 08 August 2020
Orbit: 457 x 744 km, 86.4° (Epoch: 27 September)

Event Time Altitude Azimuth Distance (km) Brightness Sun altitude
Rises 01:11:16 0° 355° (N) 2,971 9.2 -21.4°
Reaches altitude 10° 01:13:37 10° 356° (N) 2,008 8.1 -21.3°
Maximum altitude 01:18:03 89° 88° (E) 590 4.3 -21.1°
Enters shadow 01:18:42 63° 176° (S) 648 4.3 -21.0°
